QPF
0.00 0.00 0.00 0.00 0.00 0.00 0.00 0.00 0.00 0.00 0.00 0.00 0.00 0.00 0.00 0.00 0.00 0.00 0.00 0.00 0.00 0.00 0.00 0.00 0.00 0.00 0.00 0.00 0.00 0.00 0.00 0.00 0.01 0.00 0.00 0.00 0.00 0.00 0.00 0.00 0.00 0.00 0.00
0.00 0.00 0.00 0.00 0.00 0.00 0.00 0.00 0.00 0.00 0.00 0.00 0.00 0.00 0.00 0.00 0.00 0.00 0.00 0.00 0.00 0.01 0.01 0.01 0.01 0.00 0.00 0.00 0.00 0.00 0.00 0.00 0.00 0.00 0.00 0.00 0.00 0.00 0.00 0.00 0.00 0.00 0.00
0.00 0.00 0.00 0.00 0.00 0.00 0.00 0.00 0.00 0.00 0.00 0.00 0.00 0.00 0.00 0.00 0.00 0.00 0.00 0.00 0.01 0.01 0.01 0.01 0.01 0.01 0.01 0.00 0.00 0.00 0.00 0.00 0.00 0.01 0.00 0.00 0.00 0.00 0.00 0.00 0.00 0.00 0.00
0.00 0.00 0.00 0.00 0.00 0.00 0.00 0.00 0.00 0.00 0.00 0.00 0.00 0.00 0.00 0.00 0.00 0.00 0.00 0.01 0.01 0.01 0.01 0.01 0.01 0.01 0.00 0.00 0.00 0.00 0.00 0.00 0.00 0.01 0.01 0.00 0.00 0.00 0.00 0.01 0.00 0.00 0.00
0.00 0.00 0.00 0.00 0.00 0.00 0.00 0.00 0.00 0.00 0.00 0.00 0.00 0.00 0.00 0.00 0.00 0.00 0.00 0.01 0.01 0.01 0.01 0.01 0.01 0.00 0.00 0.00 0.00 0.01 0.01 0.01 0.01 0.02 0.01 0.01 0.01 0.01 0.01 0.01 0.01 0.00 0.00
0.00 0.00 0.00 0.00 0.00 0.00 0.00 0.00 0.00 0.00 0.00 0.00 0.00 0.00 0.00 0.00 0.00 0.00 0.01 0.01 0.01 0.01 0.01 0.01 0.01 0.01 0.01 0.01 0.01 0.01 0.02 0.03 0.03 0.03 0.02 0.02 0.01 0.01 0.01 0.01 0.01 0.01 0.00
0.00 0.00 0.00 0.00 0.00 0.00 0.00 0.00 0.00 0.00 0.00 0.00 0.00 0.00 0.00 0.00 0.00 0.00 0.01 0.01 0.01 0.01 0.01 0.01 0.01 0.01 0.01 0.01 0.01 0.02 0.02 0.02 0.02 0.03 0.03 0.02 0.01 0.01 0.01 0.01 0.01 0.02 0.01
0.00 0.00 0.00 0.00 0.00 0.00 0.00 0.00 0.00 0.00 0.00 0.00 0.00 0.00 0.00 0.00 0.00 0.00 0.01 0.02 0.02 0.01 0.01 0.01 0.01 0.01 0.01 0.01 0.01 0.01 0.01 0.01 0.01 0.01 0.01 0.01 0.01 0.01 0.02 0.04 0.04 0.03 0.01
0.00 0.00 0.00 0.00 0.00 0.00 0.00 0.00 0.00 0.00 0.00 0.00 0.00 0.00 0.00 0.00 0.00 0.00 0.01 0.02 0.02 0.01 0.01 0.01 0.01 0.01 0.01 0.01 0.02 0.02 0.01 0.01 0.01 0.01 0.01 0.02 0.02 0.03 0.03 0.05 0.06 0.04 0.02
0.00 0.00 0.00 0.00 0.00 0.00 0.00 0.00 0.00 0.00 0.00 0.00 0.00 0.00 0.00 0.00 0.00 0.00 0.01 0.02 0.03 0.02 0.02 0.02 0.01 0.01 0.01 0.02 0.03 0.02 0.01 0.01 0.01 0.01 0.01 0.01 0.01 0.01 0.01 0.02 0.02 0.03 0.02
0.00 0.00 0.00 0.00 0.00 0.00 0.00 0.00 0.00 0.00 0.00 0.00 0.00 0.00 0.00 0.00 0.00 0.00 0.01 0.02 0.02 0.03 0.03 0.03 0.01 0.01 0.02 0.02 0.03 0.03 0.01 0.01 0.01 0.01 0.01 0.01 0.00 0.00 0.00 0.00 0.01 0.02 0.03
0.00 0.00 0.00 0.00 0.00 0.00 0.00 0.00 0.00 0.00 0.00 0.00 0.00 0.00 0.00 0.00 0.00 0.00 0.01 0.02 0.03 0.04 0.04 0.02 0.01 0.01 0.02 0.03 0.03 0.03 0.02 0.02 0.02 0.02 0.01 0.01 0.00 0.00 0.00 0.00 0.00 0.01 0.01
0.00 0.00 0.00 0.00 0.00 0.00 0.00 0.00 0.00 0.00 0.00 0.00 0.00 0.00 0.00 0.00 0.00 0.00 0.01 0.03 0.06 0.07 0.04 0.02 0.02 0.02 0.02 0.03 0.03 0.03 0.03 0.02 0.02 0.02 0.01 0.00 0.00 0.00 0.00 0.00 0.00 0.01 0.01
0.00 0.00 0.00 0.00 0.00 0.00 0.00 0.00 0.00 0.00 0.01 0.01 0.01 0.01 0.01 0.01 0.00 0.01 0.01 0.02 0.04 0.08 0.08 0.05 0.04 0.03 0.03 0.02 0.01 0.02 0.02 0.02 0.01 0.01 0.00 0.00 0.00 0.00 0.00 0.00 0.01 0.01 0.01
0.00 0.00 0.00 0.00 0.00 0.00 0.00 0.00 0.00 0.01 0.01 0.01 0.02 0.01 0.01 0.01 0.01 0.01 0.02 0.02 0.02 0.05 0.10 0.10 0.07 0.05 0.05 0.03 0.02 0.01 0.01 0.01 0.01 0.00 0.00 0.00 0.00 0.00 0.00 0.00 0.01 0.01 0.01
0.00 0.00 0.00 0.00 0.00 0.00 0.00 0.01 0.00 0.01 0.01 0.01 0.02 0.02 0.02 0.02 0.01 0.02 0.03 0.03 0.04 0.05 0.10 0.11 0.06 0.04 0.03 0.02 0.01 0.01 0.01 0.00 0.00 0.00 0.00 0.00 0.00 0.00 0.00 0.01 0.01 0.01 0.01
0.00 0.00 0.00 0.00 0.01 0.01 0.01 0.01 0.01 0.01 0.01 0.01 0.01 0.02 0.03 0.02 0.03 0.03 0.04 0.05 0.06 0.07 0.10 0.07 0.04 0.03 0.02 0.01 0.01 0.01 0.00 0.00 0.00 0.00 0.00 0.00 0.00 0.00 0.01 0.01 0.01 0.01 0.01
0.00 0.00 0.01 0.01 0.01 0.01 0.01 0.02 0.02 0.02 0.02 0.01 0.01 0.01 0.02 0.03 0.04 0.04 0.05 0.08 0.09 0.08 0.07 0.05 0.03 0.02 0.02 0.01 0.01 0.01 0.00 0.00 0.00 0.00 0.00 0.00 0.00 0.01 0.01 0.01 0.01 0.01 0.01
0.00 0.00 0.00 0.01 0.01 0.01 0.01 0.02 0.02 0.02 0.02 0.01 0.01 0.01 0.02 0.03 0.04 0.05 0.06 0.09 0.07 0.05 0.04 0.03 0.02 0.02 0.02 0.01 0.01 0.01 0.00 0.00 0.00 0.00 0.00 0.00 0.00 0.01 0.01 0.01 0.01 0.01 0.02
0.00 0.01 0.01 0.01 0.01 0.01 0.02 0.02 0.02 0.02 0.02 0.02 0.02 0.02 0.02 0.04 0.05 0.05 0.06 0.07 0.06 0.04 0.02 0.02 0.02 0.01 0.01 0.01 0.01 0.01 0.00 0.00 0.00 0.00 0.00 0.00 0.00 0.01 0.01 0.01 0.01 0.02 0.02
0.00 0.01 0.01 0.01 0.01 0.02 0.02 0.02 0.02 0.03 0.03 0.03 0.02 0.02 0.03 0.05 0.04 0.04 0.04 0.05 0.04 0.03 0.02 0.02 0.01 0.01 0.01 0.01 0.01 0.01 0.00 0.00 0.00 0.00 0.00 0.00 0.01 0.01 0.01 0.01 0.01 0.02 0.02
0.01 0.01 0.01 0.01 0.02 0.02 0.02 0.03 0.03 0.04 0.04 0.03 0.02 0.02 0.03 0.04 0.04 0.04 0.04 0.04 0.03 0.02 0.02 0.02 0.01 0.01 0.01 0.01 0.01 0.00 0.00 0.00 0.00 0.00 0.01 0.01 0.01 0.01 0.01 0.01 0.01 0.02 0.02
0.01 0.01 0.02 0.02 0.02 0.03 0.03 0.02 0.03 0.04 0.03 0.03 0.03 0.03 0.03 0.03 0.03 0.03 0.03 0.03 0.03 0.03 0.02 0.02 0.02 0.01 0.01 0.01 0.00 0.00 0.00 0.00 0.00 0.01 0.01 0.01 0.01 0.01 0.01 0.01 0.02 0.02 0.02
0.01 0.02 0.02 0.02 0.02 0.03 0.03 0.03 0.03 0.03 0.03 0.03 0.03 0.03 0.02 0.02 0.02 0.02 0.02 0.02 0.02 0.02 0.01 0.01 0.01 0.01 0.01 0.00 0.00 0.00 0.00 0.00 0.01 0.01 0.01 0.02 0.02 0.02 0.02 0.02 0.02 0.02 0.02
0.02 0.02 0.02 0.02 0.03 0.04 0.04 0.04 0.03 0.03 0.03 0.03 0.03 0.02 0.02 0.02 0.02 0.02 0.02 0.02 0.02 0.01 0.01 0.01 0.01 0.01 0.00 0.00 0.00 0.00 0.00 0.00 0.01 0.02 0.02 0.03 0.02 0.02 0.02 0.02 0.02 0.02 0.03
0.01 0.02 0.02 0.03 0.03 0.04 0.04 0.04 0.04 0.04 0.04 0.03 0.03 0.02 0.02 0.02 0.02 0.01 0.01 0.01 0.01 0.01 0.01 0.01 0.01 0.01 0.00 0.00 0.00 0.00 0.00 0.01 0.01 0.02 0.03 0.03 0.02 0.02 0.02 0.02 0.02 0.02 0.03
MSLP
1008.92 1009.06 1009.20 1009.32 1009.38 1009.39 1009.36 1009.34 1009.35 1009.42 1009.58 1009.82 1010.13 1010.48 1010.86 1011.23 1011.58 1011.92 1012.26 1012.60 1012.98 1013.41 1013.88 1014.40 1014.94 1015.48 1015.99 1016.44 1016.82 1017.11 1017.32 1017.45 1017.51 1017.50 1017.44 1017.31 1017.12 1016.87 1016.56 1016.18 1015.76 1015.30 1014.82
1008.51 1008.57 1008.64 1008.69 1008.70 1008.66 1008.59 1008.53 1008.49 1008.52 1008.62 1008.79 1009.05 1009.35 1009.69 1010.05 1010.41 1010.78 1011.15 1011.56 1011.99 1012.47 1012.98 1013.53 1014.08 1014.62 1015.11 1015.55 1015.93 1016.22 1016.44 1016.59 1016.68 1016.71 1016.67 1016.57 1016.40 1016.15 1015.82 1015.42 1014.95 1014.44 1013.91
1008.26 1008.26 1008.26 1008.24 1008.18 1008.08 1007.96 1007.83 1007.73 1007.69 1007.71 1007.81 1007.98 1008.22 1008.51 1008.84 1009.20 1009.60 1010.02 1010.48 1010.98 1011.51 1012.07 1012.64 1013.20 1013.73 1014.21 1014.63 1014.98 1015.26 1015.47 1015.63 1015.74 1015.80 1015.80 1015.73 1015.58 1015.34 1015.01 1014.59 1014.10 1013.56 1012.99
1008.16 1008.10 1008.04 1007.94 1007.81 1007.64 1007.44 1007.24 1007.07 1006.94 1006.87 1006.88 1006.97 1007.13 1007.36 1007.65 1008.00 1008.41 1008.87 1009.38 1009.93 1010.51 1011.11 1011.71 1012.27 1012.79 1013.25 1013.64 1013.95 1014.21 1014.41 1014.57 1014.69 1014.77 1014.79 1014.75 1014.63 1014.41 1014.10 1013.68 1013.19 1012.63 1012.05
1008.15 1008.03 1007.90 1007.73 1007.52 1007.27 1007.00 1006.73 1006.48 1006.26 1006.11 1006.03 1006.03 1006.11 1006.27 1006.52 1006.85 1007.25 1007.73 1008.27 1008.86 1009.49 1010.11 1010.72 1011.29 1011.79 1012.22 1012.56 1012.84 1013.07 1013.24 1013.39 1013.51 1013.61 1013.66 1013.65 1013.56 1013.37 1013.09 1012.70 1012.22 1011.68 1011.11
1008.15 1007.98 1007.78 1007.53 1007.24 1006.92 1006.59 1006.25 1005.93 1005.65 1005.42 1005.27 1005.19 1005.19 1005.29 1005.48 1005.77 1006.15 1006.63 1007.18 1007.79 1008.43 1009.07 1009.67 1010.22 1010.70 1011.09 1011.40 1011.64 1011.83 1011.98 1012.11 1012.23 1012.34 1012.41 1012.43 1012.38 1012.24 1012.00 1011.66 1011.23 1010.73 1010.19
1008.10 1007.86 1007.58 1007.26 1006.90 1006.52 1006.14 1005.75 1005.40 1005.08 1004.81 1004.60 1004.46 1004.40 1004.44 1004.57 1004.81 1005.15 1005.60 1006.13 1006.72 1007.34 1007.97 1008.55 1009.08 1009.52 1009.87 1010.14 1010.34 1010.50 1010.63 1010.76 1010.88 1011.00 1011.10 1011.16 1011.15 1011.07 1010.89 1010.60 1010.23 1009.80 1009.31
1007.93 1007.61 1007.25 1006.86 1006.45 1006.03 1005.62 1005.23 1004.86 1004.54 1004.25 1004.02 1003.85 1003.74 1003.72 1003.80 1003.97 1004.26 1004.64 1005.12 1005.66 1006.24 1006.82 1007.36 1007.84 1008.25 1008.56 1008.80 1008.98 1009.12 1009.24 1009.37 1009.50 1009.64 1009.77 1009.87 1009.92 1009.90 1009.78 1009.57 1009.27 1008.91 1008.48
1007.61 1007.21 1006.78 1006.33 1005.88 1005.45 1005.04 1004.66 1004.32 1004.01 1003.74 1003.51 1003.33 1003.19 1003.13 1003.14 1003.24 1003.45 1003.75 1004.15 1004.61 1005.11 1005.63 1006.11 1006.54 1006.91 1007.20 1007.42 1007.58 1007.72 1007.86 1008.00 1008.16 1008.33 1008.50 1008.65 1008.75 1008.79 1008.74 1008.60 1008.37 1008.07 1007.71
1007.15 1006.67 1006.18 1005.69 1005.22 1004.79 1004.41 1004.07 1003.78 1003.51 1003.28 1003.07 1002.88 1002.72 1002.61 1002.55 1002.58 1002.69 1002.90 1003.19 1003.56 1003.98 1004.41 1004.83 1005.21 1005.54 1005.81 1006.03 1006.21 1006.37 1006.53 1006.71 1006.91 1007.12 1007.34 1007.53 1007.68 1007.77 1007.78 1007.70 1007.53 1007.28 1006.97
1006.59 1006.05 1005.51 1005.00 1004.53 1004.13 1003.78 1003.49 1003.24 1003.03 1002.83 1002.64 1002.45 1002.27 1002.11 1002.00 1001.94 1001.96 1002.06 1002.25 1002.51 1002.83 1003.19 1003.54 1003.88 1004.19 1004.46 1004.69 1004.91 1005.11 1005.32 1005.55 1005.80 1006.06 1006.32 1006.56 1006.75 1006.87 1006.92 1006.88 1006.75 1006.54 1006.27
1005.98 1005.40 1004.84 1004.32 1003.87 1003.49 1003.18 1002.94 1002.74 1002.56 1002.39 1002.21 1002.01 1001.80 1001.59 1001.41 1001.27 1001.20 1001.21 1001.30 1001.47 1001.71 1001.99 1002.29 1002.61 1002.91 1003.19 1003.46 1003.72 1003.99 1004.26 1004.55 1004.85 1005.16 1005.46 1005.73 1005.94 1006.09 1006.15 1006.13 1006.02 1005.83 1005.57
1005.37 1004.77 1004.21 1003.71 1003.27 1002.92 1002.65 1002.43 1002.25 1002.09 1001.92 1001.73 1001.51 1001.26 1001.01 1000.76 1000.55 1000.40 1000.33 1000.34 1000.44 1000.61 1000.84 1001.12 1001.42 1001.73 1002.05 1002.37 1002.69 1003.02 1003.36 1003.72 1004.07 1004.42 1004.75 1005.03 1005.26 1005.40 1005.46 1005.44 1005.32 1005.13 1004.86
1004.80 1004.21 1003.66 1003.18 1002.77 1002.43 1002.17 1001.95 1001.77 1001.59 1001.39 1001.16 1000.90 1000.61 1000.31 1000.02 999.75 999.55 999.42 999.38 999.43 999.57 999.77 1000.04 1000.35 1000.69 1001.05 1001.42 1001.81 1002.21 1002.61 1003.02 1003.42 1003.80 1004.15 1004.43 1004.65 1004.78 1004.82 1004.77 1004.63 1004.43 1004.15
1004.27 1003.71 1003.19 1002.73 1002.33 1002.00 1001.72 1001.48 1001.25 1001.02 1000.77 1000.49 1000.17 999.84 999.49 999.16 998.87 998.64 998.49 998.43 998.46 998.59 998.80 999.07 999.40 999.77 1000.18 1000.60 1001.05 1001.51 1001.96 1002.42 1002.85 1003.25 1003.60 1003.88 1004.07 1004.18 1004.19 1004.11 1003.95 1003.72 1003.42
1003.78 1003.25 1002.76 1002.32 1001.92 1001.57 1001.25 1000.95 1000.66 1000.35 1000.03 999.67 999.30 998.92 998.55 998.21 997.91 997.68 997.54 997.50 997.54 997.69 997.91 998.21 998.56 998.97 999.41 999.88 1000.37 1000.87 1001.37 1001.86 1002.31 1002.72 1003.06 1003.32 1003.50 1003.57 1003.55 1003.44 1003.26 1003.01 1002.70
1003.28 1002.79 1002.33 1001.89 1001.48 1001.09 1000.71 1000.33 999.95 999.55 999.14 998.72 998.30 997.89 997.51 997.17 996.90 996.70 996.59 996.58 996.67 996.84 997.10 997.42 997.81 998.24 998.71 999.21 999.73 1000.26 1000.78 1001.28 1001.75 1002.15 1002.49 1002.74 1002.89 1002.95 1002.91 1002.78 1002.58 1002.32 1002.01
1002.76 1002.30 1001.84 1001.39 1000.95 1000.50 1000.04 999.58 999.10 998.62 998.13 997.65 997.19 996.77 996.39 996.08 995.85 995.71 995.66 995.70 995.83 996.05 996.34 996.69 997.09 997.55 998.03 998.55 999.09 999.63 1000.16 1000.67 1001.14 1001.54 1001.87 1002.11 1002.26 1002.30 1002.26 1002.13 1001.93 1001.68 1001.38
1002.19 1001.73 1001.26 1000.79 1000.29 999.78 999.24 998.69 998.13 997.56 997.01 996.49 996.01 995.59 995.25 994.98 994.81 994.74 994.75 994.85 995.03 995.29 995.61 995.98 996.41 996.87 997.37 997.89 998.43 998.97 999.51 1000.02 1000.48 1000.89 1001.22 1001.46 1001.61 1001.66 1001.63 1001.51 1001.33 1001.09 1000.81
1001.55 1001.07 1000.58 1000.06 999.51 998.92 998.31 997.68 997.05 996.43 995.83 995.29 994.82 994.42 994.12 993.92 993.81 993.80 993.88 994.04 994.27 994.57 994.91 995.30 995.74 996.20 996.70 997.22 997.75 998.30 998.83 999.34 999.81 1000.22 1000.55 1000.81 1000.97 1001.04 1001.03 1000.93 1000.78 1000.57 1000.30
1000.84 1000.33 999.80 999.23 998.62 997.97 997.29 996.61 995.92 995.27 994.66 994.12 993.66 993.31 993.06 992.92 992.88 992.93 993.07 993.28 993.55 993.88 994.24 994.65 995.08 995.55 996.04 996.56 997.09 997.63 998.16 998.67 999.14 999.56 999.90 1000.16 1000.34 1000.44 1000.45 1000.39 1000.27 1000.09 999.86
1000.08 999.53 998.94 998.32 997.66 996.96 996.24 995.52 994.82 994.15 993.55 993.03 992.62 992.31 992.11 992.03 992.05 992.15 992.34 992.59 992.90 993.24 993.62 994.04 994.48 994.94 995.43 995.95 996.47 997.01 997.53 998.04 998.51 998.92 999.27 999.55 999.74 999.86 999.90 999.87 999.78 999.63 999.43
999.28 998.68 998.05 997.39 996.69 995.96 995.22 994.50 993.80 993.15 992.58 992.10 991.73 991.47 991.33 991.29 991.36 991.51 991.73 992.01 992.33 992.69 993.08 993.50 993.94 994.40 994.89 995.40 995.92 996.44 996.95 997.45 997.91 998.31 998.66 998.94 999.14 999.28 999.34 999.34 999.27 999.15 998.97
998.47 997.83 997.16 996.47 995.76 995.03 994.30 993.59 992.91 992.30 991.78 991.35 991.03 990.82 990.72 990.73 990.83 991.00 991.25 991.54 991.88 992.24 992.63 993.05 993.49 993.95 994.43 994.93 995.43 995.93 996.42 996.89 997.33 997.71 998.05 998.31 998.52 998.65 998.73 998.75 998.71 998.61 998.46
997.67 997.00 996.32 995.62 994.91 994.20 993.50 992.83 992.20 991.65 991.17 990.80 990.53 990.37 990.31 990.35 990.47 990.66 990.91 991.21 991.55 991.91 992.30 992.71 993.14 993.59 994.05 994.52 995.00 995.47 995.92 996.35 996.74 997.09 997.39 997.64 997.83 997.96 998.05 998.08 998.06 997.99 997.87
996.91 996.23 995.54 994.86 994.17 993.50 992.84 992.23 991.67 991.17 990.76 990.44 990.22 990.10 990.08 990.14 990.27 990.47 990.72 991.02 991.35 991.70 992.08 992.48 992.89 993.31 993.74 994.17 994.60 995.01 995.41 995.78 996.12 996.42 996.68 996.89 997.06 997.19 997.28 997.33 997.33 997.30 997.21
Thickness
5597 5592 5586 5581 5576 5571 5567 5563 5558 5552 5546 5540 5535 5528 5522 5514 5506 5497 5490 5480 5471 5463 5455 5447 5440 5431 5423 5415 5407 5399 5392 5385 5382 5382 5375 5369 5362 5357 5353 5347 5343 5338 5332
5586 5581 5576 5571 5567 5562 5558 5555 5550 5545 5540 5534 5528 5522 5516 5509 5500 5492 5484 5475 5466 5458 5449 5440 5432 5422 5414 5406 5398 5391 5385 5378 5372 5369 5365 5358 5352 5346 5341 5336 5332 5327 5321
5575 5569 5564 5559 5555 5551 5548 5545 5541 5536 5532 5526 5520 5515 5509 5501 5493 5486 5478 5469 5460 5452 5442 5433 5424 5414 5406 5398 5391 5384 5377 5370 5364 5358 5355 5348 5342 5335 5329 5326 5322 5316 5310
5563 5557 5552 5547 5544 5540 5538 5534 5530 5526 5522 5517 5512 5507 5500 5493 5485 5478 5469 5461 5452 5444 5435 5426 5417 5408 5400 5391 5383 5375 5367 5360 5354 5348 5344 5339 5333 5326 5319 5315 5312 5306 5301
5550 5544 5539 5536 5533 5529 5525 5522 5518 5515 5511 5506 5501 5497 5490 5483 5476 5467 5460 5452 5443 5435 5427 5419 5411 5401 5393 5383 5376 5368 5359 5351 5344 5339 5334 5329 5325 5316 5310 5305 5301 5298 5294
5535 5530 5527 5523 5520 5516 5512 5509 5506 5503 5499 5495 5491 5486 5480 5475 5469 5462 5451 5442 5435 5427 5419 5411 5402 5394 5387 5380 5372 5364 5354 5344 5337 5331 5326 5321 5317 5309 5301 5295 5290 5286 5286
5522 5518 5514 5511 5507 5504 5501 5498 5494 5491 5487 5483 5480 5475 5471 5467 5460 5454 5446 5437 5428 5420 5411 5402 5394 5387 5378 5370 5364 5359 5352 5344 5336 5325 5320 5316 5309 5301 5292 5286 5281 5276 5275
5508 5505 5502 5498 5495 5492 5489 5486 5483 5480 5476 5473 5469 5465 5460 5456 5450 5444 5437 5430 5422 5414 5404 5394 5385 5377 5370 5361 5353 5346 5341 5335 5328 5321 5314 5307 5299 5291 5283 5277 5272 5270 5268
5494 5493 5490 5486 5483 5480 5477 5475 5472 5469 5467 5463 5459 5455 5450 5446 5440 5434 5426 5419 5413 5405 5396 5387 5378 5370 5363 5355 5345 5338 5332 5326 5320 5314 5308 5301 5293 5286 5279 5271 5266 5260 5262
5484 5482 5479 5474 5471 5469 5467 5465 5462 5458 5456 5452 5449 5444 5439 5435 5429 5423 5416 5408 5402 5395 5387 5379 5372 5364 5356 5348 5340 5333 5326 5320 5311 5304 5299 5293 5287 5280 5273 5265 5258 5252 5250
5473 5469 5466 5462 5458 5457 5455 5453 5449 5446 5443 5440 5437 5433 5428 5423 5418 5412 5406 5398 5391 5384 5378 5372 5364 5358 5351 5343 5335 5328 5322 5313 5304 5298 5291 5285 5278 5272 5266 5259 5251 5243 5240
5458 5455 5452 5449 5446 5445 5442 5440 5436 5433 5430 5427 5423 5420 5415 5411 5406 5401 5396 5390 5383 5374 5369 5363 5356 5350 5344 5337 5329 5323 5316 5308 5300 5292 5285 5279 5273 5267 5261 5254 5247 5240 5234
5444 5441 5438 5436 5433 5430 5428 5426 5424 5420 5416 5413 5409 5407 5404 5398 5393 5390 5385 5380 5374 5366 5360 5354 5348 5342 5335 5329 5323 5316 5309 5300 5293 5286 5280 5274 5267 5261 5255 5248 5242 5236 5231
5430 5428 5425 5422 5421 5419 5415 5412 5410 5407 5403 5400 5397 5395 5392 5387 5381 5375 5370 5365 5362 5356 5350 5345 5340 5333 5326 5320 5313 5307 5300 5292 5285 5279 5273 5267 5260 5254 5248 5241 5235 5230 5226
5417 5415 5412 5409 5408 5408 5405 5402 5399 5397 5392 5389 5386 5382 5378 5376 5371 5366 5359 5353 5347 5343 5337 5332 5328 5322 5317 5311 5304 5297 5290 5284 5279 5272 5265 5258 5253 5247 5241 5234 5228 5223 5220
5405 5403 5400 5399 5398 5396 5395 5396 5393 5389 5388 5384 5380 5376 5372 5369 5364 5359 5353 5348 5342 5336 5330 5325 5321 5316 5310 5304 5297 5290 5283 5277 5271 5264 5258 5251 5246 5240 5234 5228 5223 5218 5217
5392 5392 5391 5389 5388 5386 5385 5385 5386 5385 5380 5376 5372 5368 5365 5361 5356 5351 5346 5340 5335 5329 5324 5318 5313 5308 5303 5296 5290 5283 5276 5270 5264 5257 5251 5244 5238 5233 5228 5223 5219 5215 5214
5384 5383 5382 5381 5379 5378 5377 5375 5373 5372 5372 5369 5364 5360 5357 5354 5349 5344 5338 5332 5327 5323 5318 5312 5306 5301 5295 5289 5283 5276 5270 5263 5256 5250 5243 5237 5231 5226 5222 5218 5214 5211 5210
5376 5375 5374 5373 5372 5371 5369 5367 5365 5363 5361 5360 5357 5352 5349 5346 5342 5336 5331 5324 5320 5316 5311 5305 5300 5294 5289 5283 5277 5270 5263 5256 5250 5243 5236 5230 5225 5220 5216 5213 5210 5208 5207
5370 5370 5369 5368 5367 5366 5363 5361 5359 5356 5354 5351 5348 5344 5340 5336 5331 5327 5322 5318 5314 5310 5305 5300 5294 5289 5283 5276 5270 5263 5256 5249 5243 5236 5230 5224 5219 5215 5212 5208 5206 5203 5202
5364 5365 5364 5363 5361 5360 5357 5355 5352 5349 5347 5344 5341 5338 5335 5329 5325 5320 5316 5313 5310 5306 5301 5296 5290 5284 5277 5270 5263 5256 5250 5243 5237 5231 5225 5220 5215 5212 5208 5205 5202 5200 5198
5359 5360 5359 5358 5357 5354 5352 5349 5346 5343 5340 5338 5335 5332 5330 5324 5319 5315 5312 5309 5305 5301 5296 5290 5284 5277 5271 5264 5257 5251 5244 5238 5232 5226 5221 5216 5212 5209 5205 5202 5199 5197 5195
5355 5355 5355 5354 5352 5351 5348 5344 5341 5338 5335 5333 5330 5327 5323 5318 5314 5310 5307 5303 5299 5294 5289 5283 5277 5271 5264 5258 5252 5246 5239 5234 5228 5223 5217 5213 5209 5206 5203 5200 5197 5195 5195
5351 5351 5351 5350 5349 5346 5344 5341 5338 5335 5332 5329 5326 5322 5318 5313 5309 5306 5302 5298 5293 5288 5283 5277 5271 5265 5258 5252 5246 5241 5235 5230 5225 5220 5215 5211 5207 5204 5201 5198 5196 5195 5194
5348 5348 5347 5346 5344 5342 5339 5337 5335 5332 5329 5326 5322 5318 5314 5309 5305 5302 5297 5293 5288 5282 5277 5271 5265 5259 5253 5247 5241 5236 5231 5228 5223 5219 5214 5210 5206 5203 5200 5197 5196 5195 5195
5345 5344 5343 5342 5340 5338 5335 5333 5331 5328 5325 5323 5319 5314 5310 5306 5302 5297 5292 5287 5282 5277 5271 5265 5260 5254 5249 5243 5238 5233 5229 5226 5222 5219 5214 5211 5207 5203 5200 5199 5198 5197 5197